JA9GIL-13 Weather Reports


time (UTC)temp
C
wind
direction
speed
KPH
gust
KPH
rain 1hr
cm
rain 24hr
cm
rain mn
cm
humidity
%
barometer
mb
20260505130135 11 11 1.6 3.2 0.00 0.03 0.03 71 1018.3
20260505124335 11 32 3.2 4.8 0.00 0.03 0.03 71 1018.5
20260505123434 11 22 0.0 3.2 0.00 0.03 0.03 70 1018.6
20260505120734 12 22 0.0 1.6 0.00 0.03 0.03 66 1018.4
20260505115834 12 22 0.0 1.6 0.00 0.03 0.03 62 1018.2
20260505114934 12 22 0.0 1.6 0.00 0.03 0.03 61 1018.4
20260505114034 12 359 0.0 3.2 0.00 0.03 0.03 60 1018.1
20260505113134 13 321 0.0 1.6 0.00 0.03 0.03 58 1018.3
20260505112234 13 302 0.0 1.6 0.00 0.03 0.03 55 1018.2
20260505111334 13 270 0.0 1.6 0.00 0.03 0.03 54 1018.1
20260505110435 13 300 0.0 3.2 0.00 0.03 0.03 53 1018.1
20260505101935 15 250 0.0 3.2 0.00 0.05 0.03 39 1017.4
20260505101033 15 270 1.6 4.8 0.00 0.05 0.03 37 1017.4
20260505100135 16 247 0.0 4.8 0.00 0.10 0.03 34 1017.3
20260505095235 16 255 3.2 6.4 0.00 0.10 0.03 33 1017.4
20260505094334 16 240 3.2 4.8 0.00 0.10 0.03 33 1017.4
20260505092534 18 55 3.2 6.4 0.00 0.10 0.03 31 1017.1
20260505085835 20 79 6.4 6.4 0.00 0.10 0.03 30 1016.9
20260505084935 20 229 1.6 6.4 0.00 0.10 0.03 25 1016.7
20260505083135 21 259 6.4 9.7 0.00 0.13 0.03 24 1016.2
20260505082233 21 213 3.2 9.7 0.00 0.15 0.03 24 1016.2
20260505080434 21 213 3.2 8.0 0.00 0.18 0.03 23 1016.1
20260505075534 20 236 6.4 8.0 0.00 0.18 0.03 23 1016.3
20260505073734 20 229 3.2 12.9 0.00 0.36 0.03 23 1016.4
20260505071933 21 225 6.4 12.9 0.00 0.46 0.03 23 1016.2
20260505071034 21 222 6.4 11.3 0.00 0.46 0.03 23 1016.4
20260505070134 21 238 6.4 11.3 0.00 0.46 0.03 24 1016.3
20260505064335 21 211 6.4 14.5 0.00 0.53 0.03 23 1016.4
20260505063434 22 233 6.4 14.5 0.00 0.53 0.03 22 1016.4
20260505062534 23 257 6.4 9.7 0.00 0.53 0.03 21 1016.5
20260505061633 23 248 3.2 6.4 0.00 0.53 0.03 21 1016.5
20260505060734 23 238 3.2 9.7 0.00 0.69 0.03 21 1016.1
20260505055834 23 233 6.4 6.4 0.00 0.69 0.03 21 1016.4
20260505054934 22 225 3.2 8.0 0.00 0.69 0.03 20 1016.0
20260505054034 22 228 3.2 9.7 0.00 0.69 0.03 21 1016.0
20260505053134 22 207 3.2 11.3 0.00 0.69 0.03 21 1016.1
20260505052234 22 223 4.8 12.9 0.00 0.69 0.03 20 1016.2
20260505051335 22 225 4.8 9.7 0.00 0.69 0.03 21 1016.4
20260505050435 23 227 3.2 11.3 0.00 0.69 0.03 21 1016.4
20260505041035 24 63 3.2 6.4 0.00 0.69 0.03 20 1017.0
20260505040134 24 32 1.6 11.3 0.00 0.69 0.03 20 1017.2
20260505035235 23 56 6.4 8.0 0.00 0.69 0.03 21 1017.4
20260505034335 22 260 3.2 6.4 0.00 0.69 0.03 21 1017.3
20260505032534 21 209 3.2 6.4 0.00 0.69 0.03 21 1017.7
20260505031635 22 88 3.2 12.9 0.00 0.69 0.03 22 1017.8
20260505030734 22 57 8.0 14.5 0.00 0.69 0.03 20 1018.1
20260505025834 22 61 6.4 14.5 0.00 0.69 0.03 21 1018.0
20260505024034 22 228 3.2 6.4 0.00 0.69 0.03 20 1018.4
20260505023134 22 64 3.2 6.4 0.00 0.69 0.03 20 1018.5
20260505022234 22 55 3.2 8.0 0.00 0.69 0.03 20 1018.6
20260505021334 22 33 3.2 8.0 0.00 0.69 0.03 23 1019.0
20260505020434 21 22 3.2 6.4 0.00 0.71 0.03 24 1019.0
20260505015535 20 90 3.2 9.7 0.00 0.71 0.03 24 1019.1
20260505014634 19 63 3.2 9.7 0.00 0.71 0.03 26 1019.1
20260505012834 17 55 3.2 8.0 0.00 0.71 0.03 34 1019.5
20260505011934 17 34 3.2 6.4 0.00 0.71 0.03 43 1019.4
20260505011034 16 29 1.6 4.8 0.00 0.71 0.03 44 1019.5
20260505005234 16 30 1.6 6.4 0.00 0.71 0.03 50 1019.4
20260505004334 16 256 1.6 6.4 0.00 0.71 0.03 51 1019.4
20260505003435 16 333 3.2 6.4 0.00 0.71 0.03 55 1019.4
20260505002534 16 274 3.2 6.4 0.00 0.71 0.03 54 1019.4
20260505000734 16 25 1.6 4.8 0.00 0.71 0.03 61 1019.2
20260504233134 15 211 1.6 3.2 0.00 0.71 0.03 71 1019.0
20260504225534 13 304 3.2 6.4 0.00 0.71 0.03 74 1018.7
20260504224634 13 303 4.8 6.4 0.00 0.71 0.03 80 1018.8
20260504221935 13 332 1.6 4.8 0.00 0.71 0.03 88 1018.6
20260504221034 12 162 1.6 3.2 0.00 0.71 0.03 89 1018.5
20260504220135 12 263 1.6 4.8 0.00 0.71 0.03 90 1018.6
20260504215235 12 302 1.6 3.2 0.00 0.71 0.03 95 1018.5
20260504214334 11 269 1.6 3.2 0.00 0.71 0.03 96 1018.3
20260504213434 11 336 1.6 3.2 0.00 0.71 0.03 98 1018.4
20260504212534 11 58 1.6 4.8 0.00 0.71 0.03 99 1018.1
20260504211634 10 181 1.6 3.2 0.00 0.71 0.03 99 1017.8
20260504210734 10 181 0.0 3.2 0.03 0.76 0.03 99 1017.9
20260504204934 8 315 0.0 3.2 0.03 0.76 0.03 98 1017.4
20260504204036 7 332 0.0 3.2 0.03 0.76 0.03 99 1017.2
20260504203134 6 268 1.6 3.2 0.03 0.76 0.03 99 1017.0
20260504202233 5 1 1.6 3.2 0.03 0.76 0.03 99 1017.2
20260504201334 5 1 0.0 1.6 0.00 0.71 0.03 99 1016.8
20260504200435 5 1 0.0 3.2 0.00 0.71 0.00 98 1017.0
20260504195534 5 1 0.0 1.6 0.00 0.71 0.00 98 1017.1
20260504194634 5 1 0.0 1.6 0.00 0.71 0.00 98 1016.8
20260504193734 5 1 0.0 1.6 0.00 0.71 0.00 98 1016.8
20260504192833 5 1 0.0 1.6 0.00 0.71 0.00 98 1016.8
20260504191934 5 1 0.0 1.6 0.00 0.71 0.00 98 1016.7
20260504191035 5 1 0.0 1.6 0.00 0.71 0.00 98 1016.7
20260504190135 5 1 0.0 1.6 0.00 0.76 0.00 98 1016.7
20260504185234 5 1 0.0 1.6 0.00 0.76 0.00 98 1016.5
20260504184334 5 1 0.0 1.6 0.00 0.79 0.00 98 1016.5
20260504183435 5 1 0.0 3.2 0.00 0.81 0.00 98 1016.5
20260504182534 6 1 1.6 3.2 0.00 0.84 0.00 98 1016.4
20260504181635 6 1 0.0 1.6 0.00 0.86 0.00 98 1016.4
20260504180734 6 1 0.0 1.6 0.00 0.86 0.00 98 1016.3
20260504175833 6 1 0.0 1.6 0.00 0.86 0.00 98 1016.4
20260504174934 6 1 0.0 1.6 0.00 0.89 0.00 98 1016.2
20260504174034 6 1 0.0 1.6 0.00 0.89 0.00 98 1016.4
20260504173135 6 1 0.0 3.2 0.00 0.89 0.00 98 1015.9
20260504172235 6 25 0.0 3.2 0.00 0.89 0.00 98 1015.8
20260504170434 6 45 0.0 1.6 0.00 1.02 0.00 98 1016.2
20260504160135 7 45 0.0 1.6 0.00 1.19 0.00 93 1015.8
20260504141334 8 45 1.6 3.2 0.00 1.60 1.37 92 1015.2
20260504140435 8 76 0.0 4.8 0.00 1.65 1.37 92 1015.4